Regional Weather Roundup
Issued by NWS State College, PA

Home | Current Version | Previous Version | Text Only | Print | Product List | Glossary Off
Versions: 1 2 3 4 5 6 7 8 9 10 11 12 13 14 15 16 17 18 19 20 21 22 23 24 25 26 27 28 29 30 31 32 33 34 35 36 37 38 39 40 41 42 43 44 45 46 47 48 49 50

868
ASUS41 KCTP 210910
RWRCTP

REGIONAL WEATHER ROUNDUP
NATIONAL WEATHER SERVICE STATE COLLEGE PA
500 AM EDT SAT OCT 21 2017

Note: "fair" indicates few or no clouds below 12,000 feet with no
significant weather and/or obstructions to visibility.

* = STATION THAT DOES NOT REPORT PRECIPITATION /E.G. RAIN...SNOW...ETC/
    THUNDER OR FOG.

PAZ002>004-007>009-013>016-020>023-029>032-211000-
WESTERN PENNSYLVANIA

CITY           SKY/WX    TMP DP  RH WIND       PRES   REMARKS
ERIE           CLEAR     52  38  58 S3        30.24R
MEADVILLE      CLEAR     53  35  50 VRB3      30.26R
FRANKLIN*      CLEAR     42  38  85 E3        30.28R
NEW CASTLE     FAIR      41  40  96 E3        30.27R
BEAVER COUNTY  NOT AVBL
BUTLER*        CLOUDY    41  38  89 NE3       30.27R
PITTSBURGH INT CLOUDY    45  41  86 CALM      30.25S
PITTSBURGH     CLEAR     49  41  74 S6        30.26R
INDIANA*       CLEAR     41  39  93 CALM      30.30S FOG
LATROBE        CLEAR     41  41 100 CALM      30.28S
WASHINGTON CO* PTCLDY    42  40  92 CALM      30.29R
$$

PAZ004>006-010>012-017>019-024>028-033>037-041-042-045-046-049>053-211000-
CENTRAL PENNSYLVANIA

CITY           SKY/WX    TMP DP  RH WIND       PRES   REMARKS
BRADFORD       CLEAR     41  35  79 CALM      30.29R
DUBOIS           N/A    N/A N/A N/A MISG      30.27S
CLEARFIELD     CLEAR     39  37  92 N3        30.30S
JOHNSTOWN      CLOUDY    51  35  54 SW6       30.30R
ALTOONA        CLEAR     48  39  71 CALM      30.30R
STATE COLLEGE  PTCLDY    44  39  85 CALM      30.30R
WILLIAMSPORT   CLEAR     42  39  89 CALM      30.30S
SELINSGROVE    CLEAR     39  39 100 NW3       30.31R
FT INDIANTOWN  CLEAR     41  41 100 CALM      30.28R
CAPITAL CITY   CLEAR     44  40  85 CALM      30.28S
HARRISBURG     CLEAR     45  44  97 CALM      30.28R
YORK           CLEAR     39  39 100 W3        30.28R
$$

PAZ038>040-043-044-047-048-054-055-060>062-067>071-211000-
EASTERN PENNSYLVANIA

CITY           SKY/WX    TMP DP  RH WIND       PRES   REMARKS
SCRANTON       CLOUDY    45  36  70 SE5       30.30R
MOUNT POCONO   CLEAR     39  36  89 CALM      30.30R
ALLENTOWN      CLEAR     43  38  82 CALM      30.28R
QUAKERTOWN*    SUNNY     39  39 100 CALM      30.29R
READING        CLEAR     44  43  96 N3        30.28R
LANCASTER      CLEAR     43  42  97 CALM      30.29R
COATESVILLE    SUNNY     48  39  71 W6        30.29R
POTTSTOWN      CLEAR     41  41 100 CALM      30.29S
BLUE BELL      CLEAR     39  39 100 CALM      30.30R
DOYLESTOWN     CLEAR     46  40  79 CALM      30.27R
WILLOW GROVE   NOT AVBL
NORTH PHILA    CLEAR     51  40  65 CALM      30.29R
PHILADELPHIA   CLEAR     50  43  77 CALM      30.28R
$$




USA.gov is the U.S. government's official web portal to all federal, state and local government web resources and services.